Irving, TX

11:02 AM CDT on October 01, 2016 (GMT -0500)
Dallas-Fort Worth International

Weather History for KDFW - October, 2012

Change the Weather History Date:

Thursday, October 11, 2012

  Actual Average Record
Temperature  
Mean Temperature 76 °F 69 °F  
Max Temperature 87 °F 80 °F 99 °F (1979)
Min Temperature 64 °F 58 °F 42 °F (1990)
Degree Days  
Heating Degree Days 0 1  
Month to date heating degree days 39 11  
Since 1 July heating degree days 39 17  
Cooling Degree Days 11 5  
Month to date cooling degree days 50 73  
Year to date cooling degree days 3167 2650  
Growing Degree Days 26 (Base 50)    
Moisture  
Dew Point 67 °F    
Average Humidity 71    
Maximum Humidity 90    
Minimum Humidity 51    
Precipitation  
Precipitation T in 0.13 in 2.09 in (1973)
Month to date precipitation T 1.22  
Year to date precipitation 28.24 27.88  
Snow  
Snow 0.00 in 0.00 in 0.00 in ()
Month to date snowfall 0.0 0.0  
Since 1 July snowfall 0.0 0.0  
Since 1 September snowfall 0.0 0.0  
Snow Depth 0.00 in    
Sea Level Pressure  
Sea Level Pressure 30.09 in    
Wind  
Wind Speed 8 mph (SE)    
Max Wind Speed 23 mph    
Max Gust Speed 30 mph    
Visibility 8 miles    
Events Rain    
T = Trace of Precipitation, MM = Missing Value Source: NWS Daily Summary

Daily Weather History Graph

Daily Weather History Graph

Search for Another Location

Airport or City:

Trip Planner

Search our weather history database for the weather conditions in past years. The results will help you decide how hot, cold, wet, or windy it might be!

Date:

Astronomy

Oct. 11, 2012 Rise Set
Actual Time 7:29 AM CDT 6:59 PM CDT
Civil Twilight 7:04 AM CDT 7:23 PM CDT
Nautical Twilight 6:36 AM CDT 7:52 PM CDT
Astronomical Twilight 6:07 AM CDT 8:21 PM CDT
Moon 3:21 AM CDT (10/11) 4:25 PM CDT (10/11)
Length of Visible Light 12h 19m
Length of Day
11h 29m
Waning Crescent, 18% of the Moon is Illuminated
Oct 11
Waning Crescent
Oct 15
New
Oct 21
First Quarter
Oct 29
Full
Nov 6
Last Quarter

Hourly Weather History & Observations

Time (CDT) Temp. Heat Index Dew Point Humidity Pressure Visibility Wind Dir Wind Speed Gust Speed Precip Events Conditions
12:53 AM 66.6 °F - 59.9 °F 79% 30.08 in 8.0 mi East 6.9 mph - N/A   Mostly Cloudy
1:53 AM 66.4 °F - 60.1 °F 80% 30.09 in 8.0 mi ENE 5.8 mph - N/A   Overcast
2:42 AM 66.2 °F - 60.8 °F 83% 30.09 in 9.0 mi ENE 6.9 mph - N/A   Scattered Clouds
2:53 AM 65.8 °F - 60.6 °F 83% 30.08 in 9.0 mi East 6.9 mph - N/A   Scattered Clouds
3:53 AM 65.5 °F - 61.3 °F 86% 30.07 in 7.0 mi East 8.1 mph - N/A   Overcast
4:53 AM 66.0 °F - 62.4 °F 88% 30.07 in 7.0 mi ESE 9.2 mph - N/A   Mostly Cloudy
5:53 AM 67.5 °F - 64.6 °F 90% 30.09 in 6.0 mi SE 8.1 mph - N/A   Mostly Cloudy
6:25 AM 68.0 °F - 64.4 °F 88% 30.09 in 6.0 mi SE 6.9 mph - N/A   Mostly Cloudy
6:53 AM 69.8 °F - 64.4 °F 83% 30.10 in 6.0 mi SSE 8.1 mph - N/A   Overcast
7:53 AM 70.0 °F - 66.0 °F 87% 30.12 in 4.0 mi SSE 4.6 mph - N/A   Overcast
8:05 AM 69.8 °F - 66.2 °F 88% 30.11 in 4.0 mi SE 4.6 mph - N/A   Overcast
8:53 AM 72.0 °F - 68.0 °F 87% 30.13 in 6.0 mi SSE 5.8 mph - N/A   Overcast
9:53 AM 73.9 °F - 68.0 °F 82% 30.14 in 6.0 mi South 10.4 mph - N/A   Overcast
10:11 AM 73.4 °F - 69.8 °F 88% 30.15 in 8.0 mi SSE 9.2 mph - N/A   Overcast
10:53 AM 72.7 °F - 69.1 °F 88% 30.15 in 8.0 mi SSE 10.4 mph - N/A   Overcast
11:19 AM 73.4 °F - 69.8 °F 88% 30.15 in 7.0 mi SSE 9.2 mph - N/A   Overcast
11:53 AM 75.0 °F - 69.1 °F 82% 30.15 in 8.0 mi SE 9.2 mph - N/A   Overcast
12:53 PM 75.0 °F - 70.0 °F 84% 30.14 in 6.0 mi SSE 6.9 mph - 0.00 in Rain Light Rain
1:27 PM 78.8 °F - 69.8 °F 74% 30.12 in 8.0 mi SSE 9.2 mph - 0.00 in   Overcast
1:53 PM 79.0 °F - 70.0 °F 74% 30.11 in 10.0 mi SSE 8.1 mph - 0.00 in   Overcast
2:53 PM 82.0 °F 85.9 °F 70.0 °F 67% 30.05 in 10.0 mi SSE 10.4 mph - N/A   Mostly Cloudy
3:53 PM 84.0 °F 87.8 °F 69.1 °F 61% 30.04 in 10.0 mi SSE 9.2 mph - N/A   Mostly Cloudy
4:53 PM 86.0 °F 88.2 °F 66.2 °F 51% 30.04 in 10.0 mi South 11.5 mph - N/A   Scattered Clouds
5:53 PM 84.2 °F 88.4 °F 69.8 °F 62% 30.03 in 10.0 mi ESE 11.5 mph - N/A   Scattered Clouds
6:53 PM 82.0 °F 85.9 °F 70.0 °F 67% 30.02 in 10.0 mi ESE 9.2 mph - N/A   Mostly Cloudy
7:53 PM 80.1 °F 82.7 °F 68.0 °F 67% 30.04 in 10.0 mi SE 18.4 mph 26.5 mph N/A   Overcast
8:53 PM 75.9 °F - 68.0 °F 76% 30.07 in 10.0 mi SSE 19.6 mph 26.5 mph N/A   Scattered Clouds
9:53 PM 73.0 °F - 68.0 °F 84% 30.09 in 10.0 mi South 11.5 mph 20.7 mph N/A   Scattered Clouds
10:53 PM 72.0 °F - 68.0 °F 87% 30.09 in 10.0 mi South 6.9 mph - N/A   Scattered Clouds
11:53 PM 71.1 °F - 66.9 °F 87% 30.09 in 10.0 mi SSE 5.8 mph - N/A   Scattered Clouds